Content
SEND FEEDBACK

Daily
Averages
Monthly
Summary
United States of America

UKIAH, CALIFORNIA


Home > North America > United States > California
Elevation: 615 feet     Latitude: 39 08N     Longitude: 123 12W

WEATHER
 
SELECT A DAY
Number of Records: 219,698;   Date Range: 1/1/95 - 10/21/14
 
SHARE

PRINT THIS DATA

[ ← Previous Day ]
WEATHER ALMANAC - JANUARY 23, 2013
[ Next Day → ]
[ °C ]   °F
Weather ElementAverageHighLow
Temperature47.6 °F52 °F (10:56 am)45 °F (1:56 am)
Dewpoint44.9 °F46.9 °F (5:56 pm)37.9 °F (1:56 am)
Humidity90.6 %100 % (9:44 pm)69 % (11:56 am)
Barometer30.06 in30.11 in (9:44 pm)29.96 in (5:56 am)
Wind Speed1.8 mph6.9 mph (3:56 pm)
Weather ElementAverage
Visibility5.5 mi
Wind DirectionESE (106.8 °)

Weather ElementTotal
Precipitation0.56 in
Heating Degree Days16.5 (Base 65)
Averaged from 37 records on January 23, 2013
WEATHER CONDITIONS BREAKOUT
WIND DIRECTION BREAKOUT
WEATHER BY HOUR - JANUARY 23, 2013
[ °C ]   °F
Local TimeTemperatureDewpointHumidityBarometerVisibilityWind DirectionWind SpeedGust SpeedPrecipitationEventsConditions
1:56 AM45.0 °F37.9 °F76 %29.99 in10.0 miNNW (340°)4.6 mphOvercast
2:56 AM45.0 °F37.9 °F76 %29.98 in10.0 miCalm0.00 inRainLight Rain
3:56 AM46.9 °F41.0 °F80 %29.97 in10.0 miCalm0.00 inRainLight Rain
4:56 AM45.0 °F41.0 °F86 %29.97 in10.0 miSSW (200°)5.8 mph0.00 inRainLight Rain
5:56 AM46.9 °F42.1 °F83 %29.96 in10.0 miNNE (30°)4.6 mph0.00 inOvercast
7:56 AM46.9 °F44.1 °F90 %29.96 in9.0 miCalm0.01 inOvercast
8:56 AM46.9 °F44.1 °F90 %30.00 in9.0 miNW (320°)3.5 mph0.01 inRainLight Rain
9:56 AM48.9 °F44.1 °F83 %30.01 in10.0 miNNW (340°)3.5 mph0.00 inMostly Cloudy
10:56 AM52.0 °F43.0 °F71 %30.01 in10.0 miNNW (340°)4.6 mphMostly Cloudy
11:56 AM52.0 °F42.1 °F69 %30.01 in10.0 miCalmOvercast
12:56 PM52.0 °F44.1 °F74 %30.01 in7.0 miNorth (10°)3.5 mph0.02 inRainLight Rain
1:56 PM50.0 °F43.0 °F77 %30.01 in3.0 miCalm0.05 inRainRain
2:56 PM48.9 °F45.0 °F86 %30.02 in6.0 miCalm0.10 inRainLight Rain
3:56 PM48.9 °F46.0 °F90 %30.04 in6.0 miESE (120°)6.9 mph0.05 inRainLight Rain
4:56 PM48.0 °F46.0 °F93 %30.05 in7.0 miCalm0.03 inRainLight Rain
5:56 PM48.0 °F46.9 °F96 %30.07 in7.0 miSSW (210°)4.6 mph0.04 inRainLight Rain
6:56 PM48.0 °F46.9 °F96 %30.09 in5.0 miNorth (350°)3.5 mph0.02 inRainLight Rain
7:03 PM48.2 °F46.4 °F93 %30.09 in5.0 miNNW (340°)4.6 mph0.00 inRainLight Rain
7:19 PM48.2 °F46.4 °F93 %30.09 in5.0 miNorth (350°)3.5 mph0.00 inRainLight Rain
7:28 PM48.2 °F46.4 °F93 %30.10 in5.0 miCalm0.00 inRainLight Rain
7:35 PM48.2 °F46.4 °F93 %30.10 in5.0 miCalm0.00 inRainLight Rain
7:52 PM48.2 °F46.4 °F93 %30.10 in5.0 miNW (320°)3.5 mph0.01 inRainLight Rain
7:56 PM48.0 °F46.9 °F96 %30.09 in5.0 miCalm0.01 inRainLight Rain
8:37 PM48.2 °F46.4 °F93 %30.10 in5.0 miNNW (340°)3.5 mph0.01 inRainLight Rain
8:47 PM48.2 °F46.4 °F93 %30.10 in5.0 miNNW (340°)4.6 mph0.01 inOvercast
8:56 PM46.9 °F46.0 °F97 %30.09 in3.0 miCalm0.01 inOvercast
9:44 PM46.4 °F46.4 °F100 %30.11 in1.8 miCalm0.02 inRainLight Rain
9:56 PM46.9 °F46.0 °F97 %30.11 in1.8 miCalm0.02 inRainLight Rain
10:31 PM46.4 °F46.4 °F100 %30.11 in0.8 miCalm0.02 inRainLight Rain
10:38 PM46.4 °F46.4 °F100 %30.11 in1.5 miCalm0.02 inRainLight Rain
10:47 PM46.4 °F46.4 °F100 %30.11 in2.5 miCalm0.02 inRainLight Rain
10:56 PM46.9 °F46.0 °F97 %30.10 in2.0 miCalm0.02 inRainLight Rain
11:05 PM46.4 °F46.4 °F100 %30.11 in1.8 miCalm0.01 inRainLight Rain
11:16 PM46.4 °F46.4 °F100 %30.11 in2.5 miCalm0.01 inRainLight Rain
11:26 PM46.4 °F46.4 °F100 %30.11 in3.0 miCalm0.01 inRainLight Rain
11:38 PM46.4 °F46.4 °F100 %30.11 in2.5 miCalm0.01 inRainLight Rain
11:56 PM46.0 °F46.0 °F100 %30.10 in1.0 miCalm0.02 inRainLight Rain
Hourly data recorded from KUKI, located miles away from Ukiah, California







STORIES FROM OUR PARTNERS